STARLINK-1593, 46119

Orbit data source: Space-Track

STARLINK-1593, 46119 is a payload satellite owned by SpaceX/Seattle (US) in LEO that was launched on Tue, 18 Aug 2020 UTC via an FALCON 9 launch vehicle from the Air Force Eastern Test Range (AFETR). Payload-class satellites include a variety of spacecraft equipped with specific instruments for various scientific and technological missions. These include communications satellites like Starlink; space stations such as the ISS; scientific satellites like the Hubble; Earth observation satellites from companies like Planet Labs, Umbra, and HawkEye 360; GPS; miniature CubeSats for education and research; and military/defense satellites.

Not visible in the next 10 days
Identifier
46119, 2020-057C
Orbit
LEO
Country
Flag of USUS
Related business
Manufacturer
SpaceX/Seattle
Mission
Partially operational Commercial Communications
Bus & Motor
STARLINK, Unknown motor
Mass
260 kg wet, ~248 kg dry
Launch date (UTC)
2020-08-18 (6 years ago)
Launch vehicle
FALCON 9
Launch site
Air Force Eastern Test Range (AFETR)
Object type
Payload
Rocket body
Debris
Shape & HBR
Box + 1 Pan, 10.1 m
Radar Cross Section
13.562 m², Large (>1 m²)

Expand to show TLE details & history
Last TLE update: 7 hours ago

TLE from 7 hours ago
0 STARLINK-1593
1 46119U 20057C   26123.04026648  .01581351  20790-2  11609-2 0  9992
2 46119  53.0286 354.2467 0009042 242.7604 117.2511 16.15394010316613
Epoch: 2026-05-03T00:57Z
TLE epoch observation values (Epoch: 2026-05-03T00:57:59.023Z)
Latitude
-0.00004°
Longitude
118.80121°
Altitude
235.746 km
Speed
7.765 km/s
True Right ascension
23h 36m 59s
True Declination
0° 00' 00"
Sunlit
Object was in daylight at epoch
Visualization orbit readout
Latitude
Unknown
Longitude
Unknown
Altitude
Unknown
Speed
Unknown
Apparent Right ascension
Unknown
Apparent Declination
Unknown
Sunlit
N/A
Visualization observer readout
Local Sidereal Time
15:48:28
Azimuth
Unknown
Elevation
Unknown
Doppler factor
Unknown
Orbital elements
Apogee altitude
238.352 km
Perigee altitude
226.398 km
Semi-major axis
6,610.512 km
Eccentricity
0.0009
Inclination
53.0286°
RAAN
354.2467°
Arg. of periapsis
242.7604°
True anomaly
117.34317°
Mean anomaly
117.2511°
Eccentric anomaly
117.29714°
Mean motion
4.03823 °/min
Orbital period
89.15 mins
BSTAR
0.0011609
Loading maneuver chart data...
Computing Atmospheric mass density...
Loading historical data...
Loading historical data...
Loading historical data...
Loading historical data...
Loading historical data...
Loading historical data...
Loading historical data...

Documentation

Showing up to 5 results
|